Year,Month,Day,Hour,Minute,Value (Times are PST for windgust in km/hr)
2015,08,29,00,00,1.60
2015,08,29,00,05,1.60
2015,08,29,00,06,3.20
2015,08,29,00,07,3.20
2015,08,29,00,08,1.60
2015,08,29,00,09,1.60
2015,08,29,00,10,1.60
2015,08,29,00,11,3.20
2015,08,29,00,14,3.20
2015,08,29,00,15,3.20
2015,08,29,00,16,3.20
2015,08,29,00,17,4.80
2015,08,29,00,18,3.20
2015,08,29,00,19,1.60
2015,08,29,00,22,1.60
2015,08,29,00,23,3.20
2015,08,29,00,24,1.60
2015,08,29,00,25,1.60
2015,08,29,00,26,4.80
2015,08,29,00,27,3.20
2015,08,29,00,28,3.20
2015,08,29,00,30,1.60
2015,08,29,00,36,1.60
2015,08,29,00,37,1.60
2015,08,29,00,38,1.60
2015,08,29,00,39,1.60
2015,08,29,00,40,1.60
2015,08,29,00,41,1.60
2015,08,29,00,42,1.60
2015,08,29,00,43,1.60
2015,08,29,00,45,1.60
2015,08,29,00,46,1.60
2015,08,29,00,47,3.20
2015,08,29,00,48,3.20
2015,08,29,00,49,3.20
2015,08,29,00,50,3.20
2015,08,29,00,52,6.40
2015,08,29,00,53,6.40
2015,08,29,00,54,3.20
2015,08,29,00,56,3.20
2015,08,29,00,57,1.60
2015,08,29,01,01,1.60
2015,08,29,01,02,3.20
2015,08,29,01,03,6.40
2015,08,29,01,04,4.80
2015,08,29,01,05,1.60
2015,08,29,01,10,3.20
2015,08,29,01,11,1.60
2015,08,29,01,13,1.60
2015,08,29,01,15,1.60
2015,08,29,01,17,1.60
2015,08,29,01,18,1.60
2015,08,29,01,25,1.60
2015,08,29,01,29,3.20
2015,08,29,01,30,3.20
2015,08,29,01,31,3.20
2015,08,29,01,32,3.20
2015,08,29,01,34,4.80
2015,08,29,01,35,4.80
2015,08,29,01,36,3.20
2015,08,29,01,37,1.60
2015,08,29,01,38,1.60
2015,08,29,01,39,1.60
2015,08,29,01,40,4.80
2015,08,29,01,41,6.40
2015,08,29,01,42,3.20
2015,08,29,01,43,1.60
2015,08,29,01,45,3.20
2015,08,29,01,46,4.80
2015,08,29,01,47,4.80
2015,08,29,01,48,4.80
2015,08,29,01,51,1.60
2015,08,29,01,52,1.60
2015,08,29,01,53,3.20
2015,08,29,01,54,3.20
2015,08,29,01,55,3.20
2015,08,29,01,56,4.80
2015,08,29,01,57,3.20
2015,08,29,01,58,3.20
2015,08,29,01,59,3.20
2015,08,29,02,00,3.20
2015,08,29,02,01,1.60
2015,08,29,02,07,3.20
2015,08,29,02,08,1.60
2015,08,29,02,10,1.60
2015,08,29,02,11,1.60
2015,08,29,02,12,1.60
2015,08,29,02,16,3.20
2015,08,29,02,18,3.20
2015,08,29,02,19,1.60
2015,08,29,02,20,3.20
2015,08,29,02,21,3.20
2015,08,29,02,22,3.20
2015,08,29,02,23,4.80
2015,08,29,02,24,4.80
2015,08,29,02,25,6.40
2015,08,29,02,26,6.40
2015,08,29,02,27,9.60
2015,08,29,02,28,9.60
2015,08,29,02,29,9.60
2015,08,29,02,30,8.10
2015,08,29,02,31,9.60
2015,08,29,02,32,6.40
2015,08,29,02,33,8.10
2015,08,29,02,34,6.40
2015,08,29,02,35,4.80
2015,08,29,02,36,6.40
2015,08,29,02,37,6.40
2015,08,29,02,38,6.40
2015,08,29,02,39,4.80
2015,08,29,02,40,8.10
2015,08,29,02,41,9.60
2015,08,29,02,42,6.40
2015,08,29,02,43,8.10
2015,08,29,02,44,4.80
2015,08,29,02,45,6.40
2015,08,29,02,46,8.10
2015,08,29,02,47,9.60
2015,08,29,02,48,8.10
2015,08,29,02,49,8.10
2015,08,29,02,50,8.10
2015,08,29,02,51,6.40
2015,08,29,02,52,4.80
2015,08,29,02,53,3.20
2015,08,29,02,54,4.80
2015,08,29,02,55,6.40
2015,08,29,02,56,6.40
2015,08,29,02,57,6.40
2015,08,29,02,58,4.80
2015,08,29,02,59,6.40
2015,08,29,03,00,4.80
2015,08,29,03,01,4.80
2015,08,29,03,02,4.80
2015,08,29,03,03,6.40
2015,08,29,03,04,6.40
2015,08,29,03,05,3.20
2015,08,29,03,06,6.40
2015,08,29,03,07,4.80
2015,08,29,03,08,4.80
2015,08,29,03,09,3.20
2015,08,29,03,10,3.20
2015,08,29,03,11,4.80
2015,08,29,03,12,4.80
2015,08,29,03,13,4.80
2015,08,29,03,14,4.80
2015,08,29,03,15,3.20
2015,08,29,03,16,1.60
2015,08,29,03,17,1.60
2015,08,29,03,18,4.80
2015,08,29,03,19,4.80
2015,08,29,03,20,8.10
2015,08,29,03,21,4.80
2015,08,29,03,22,4.80
2015,08,29,03,23,6.40
2015,08,29,03,24,4.80
2015,08,29,03,25,6.40
2015,08,29,03,26,4.80
2015,08,29,03,27,4.80
2015,08,29,03,28,6.40
2015,08,29,03,29,4.80
2015,08,29,03,30,3.20
2015,08,29,03,31,3.20
2015,08,29,03,32,4.80
2015,08,29,03,33,6.40
2015,08,29,03,34,6.40
2015,08,29,03,35,4.80
2015,08,29,03,36,4.80
2015,08,29,03,37,4.80
2015,08,29,03,38,4.80
2015,08,29,03,39,4.80
2015,08,29,03,40,3.20
2015,08,29,03,41,3.20
2015,08,29,03,42,3.20
2015,08,29,03,43,1.60
2015,08,29,03,44,3.20
2015,08,29,03,45,4.80
2015,08,29,03,46,3.20
2015,08,29,03,47,4.80
2015,08,29,03,48,4.80
2015,08,29,03,49,3.20
2015,08,29,03,50,4.80
2015,08,29,03,51,4.80
2015,08,29,03,52,1.60
2015,08,29,04,03,1.60
2015,08,29,04,09,1.60
2015,08,29,04,10,1.60
2015,08,29,04,11,3.20
2015,08,29,04,12,3.20
2015,08,29,04,13,3.20
2015,08,29,04,14,3.20
2015,08,29,04,15,3.20
2015,08,29,04,16,3.20
2015,08,29,04,17,3.20
2015,08,29,04,18,4.80
2015,08,29,04,19,4.80
2015,08,29,04,20,6.40
2015,08,29,04,21,6.40
2015,08,29,04,22,6.40
2015,08,29,04,23,4.80
2015,08,29,04,24,6.40
2015,08,29,04,25,6.40
2015,08,29,04,26,4.80
2015,08,29,04,27,3.20
2015,08,29,04,28,4.80
2015,08,29,04,29,4.80
2015,08,29,04,30,4.80
2015,08,29,04,31,4.80
2015,08,29,04,32,4.80
2015,08,29,04,33,6.40
2015,08,29,04,34,4.80
2015,08,29,04,35,4.80
2015,08,29,04,36,4.80
2015,08,29,04,37,4.80
2015,08,29,04,38,4.80
2015,08,29,04,40,4.80
2015,08,29,04,41,4.80
2015,08,29,04,42,4.80
2015,08,29,04,43,4.80
2015,08,29,04,44,1.60
2015,08,29,04,45,3.20
2015,08,29,04,46,4.80
2015,08,29,04,47,6.40
2015,08,29,04,48,6.40
2015,08,29,04,49,4.80
2015,08,29,04,50,4.80
2015,08,29,04,51,4.80
2015,08,29,04,52,4.80
2015,08,29,04,53,4.80
2015,08,29,04,54,4.80
2015,08,29,04,55,4.80
2015,08,29,04,56,9.60
2015,08,29,04,57,9.60
2015,08,29,04,58,8.10
2015,08,29,04,59,6.40
2015,08,29,05,00,6.40
2015,08,29,05,01,6.40
2015,08,29,05,02,1.60
2015,08,29,05,03,4.80
2015,08,29,05,04,1.60
2015,08,29,05,05,3.20
2015,08,29,05,06,1.60
2015,08,29,05,07,1.60
2015,08,29,05,12,1.60
2015,08,29,05,13,1.60
2015,08,29,05,14,3.20
2015,08,29,05,15,1.60
2015,08,29,05,16,4.80
2015,08,29,05,17,6.40
2015,08,29,05,18,4.80
2015,08,29,05,19,3.20
2015,08,29,05,20,1.60
2015,08,29,05,21,1.60
2015,08,29,05,22,1.60
2015,08,29,05,24,1.60
2015,08,29,05,25,3.20
2015,08,29,05,26,1.60
2015,08,29,05,27,6.40
2015,08,29,05,28,6.40
2015,08,29,05,29,4.80
2015,08,29,05,30,6.40
2015,08,29,05,31,6.40
2015,08,29,05,32,6.40
2015,08,29,05,33,3.20
2015,08,29,05,34,1.60
2015,08,29,05,35,1.60
2015,08,29,05,39,3.20
2015,08,29,05,40,1.60
2015,08,29,05,41,3.20
2015,08,29,05,42,3.20
2015,08,29,05,43,4.80
2015,08,29,05,44,6.40
2015,08,29,05,45,8.10
2015,08,29,05,46,8.10
2015,08,29,05,47,6.40
2015,08,29,05,48,9.60
2015,08,29,05,49,8.10
2015,08,29,05,50,9.60
2015,08,29,05,51,11.30
2015,08,29,05,52,17.70
2015,08,29,05,53,16.10
2015,08,29,05,54,16.10
2015,08,29,05,55,16.10
2015,08,29,05,56,16.10
2015,08,29,05,57,14.50
2015,08,29,05,58,19.30
2015,08,29,05,59,19.30
2015,08,29,06,00,22.50
2015,08,29,06,01,20.90
2015,08,29,06,02,27.40
2015,08,29,06,03,29.00
2015,08,29,06,04,22.50
2015,08,29,06,05,20.90
2015,08,29,06,06,14.50
2015,08,29,06,07,22.50
2015,08,29,06,08,37.00
2015,08,29,06,09,30.60
2015,08,29,06,10,24.20
2015,08,29,06,11,19.30
2015,08,29,06,12,16.10
2015,08,29,06,13,14.50
2015,08,29,06,14,16.10
2015,08,29,06,15,16.10
2015,08,29,06,16,11.30
2015,08,29,06,17,14.50
2015,08,29,06,18,8.10
2015,08,29,06,19,9.60
2015,08,29,06,20,8.10
2015,08,29,06,21,6.40
2015,08,29,06,22,8.10
2015,08,29,06,23,8.10
2015,08,29,06,24,6.40
2015,08,29,06,25,8.10
2015,08,29,06,26,6.40
2015,08,29,06,27,8.10
2015,08,29,06,28,6.40
2015,08,29,06,29,8.10
2015,08,29,06,30,8.10
2015,08,29,06,31,8.10
2015,08,29,06,32,6.40
2015,08,29,06,33,8.10
2015,08,29,06,34,9.60
2015,08,29,06,35,11.30
2015,08,29,06,36,11.30
2015,08,29,06,37,8.10
2015,08,29,06,38,6.40
2015,08,29,06,39,6.40
2015,08,29,06,40,3.20
2015,08,29,06,41,4.80
2015,08,29,06,42,8.10
2015,08,29,06,43,8.10
2015,08,29,06,44,6.40
2015,08,29,06,45,6.40
2015,08,29,06,46,6.40
2015,08,29,06,47,6.40
2015,08,29,06,48,8.10
2015,08,29,06,49,16.10
2015,08,29,06,50,17.70
2015,08,29,06,51,22.50
2015,08,29,06,52,19.30
2015,08,29,06,53,14.50
2015,08,29,06,54,14.50
2015,08,29,06,55,16.10
2015,08,29,06,56,17.70
2015,08,29,06,57,20.90
2015,08,29,06,58,20.90
2015,08,29,06,59,20.90
2015,08,29,07,00,22.50
2015,08,29,07,01,9.60
2015,08,29,07,02,17.70
2015,08,29,07,03,19.30
2015,08,29,07,04,11.30
2015,08,29,07,05,14.50
2015,08,29,07,06,14.50
2015,08,29,07,07,11.30
2015,08,29,07,08,17.70
2015,08,29,07,09,11.30
2015,08,29,07,10,11.30
2015,08,29,07,11,9.60
2015,08,29,07,12,11.30
2015,08,29,07,13,8.10
2015,08,29,07,14,9.60
2015,08,29,07,15,9.60
2015,08,29,07,16,9.60
2015,08,29,07,17,8.10
2015,08,29,07,18,14.50
2015,08,29,07,19,17.70
2015,08,29,07,20,20.90
2015,08,29,07,21,17.70
2015,08,29,07,22,16.10
2015,08,29,07,23,19.30
2015,08,29,07,24,9.60
2015,08,29,07,25,16.10
2015,08,29,07,26,16.10
2015,08,29,07,27,14.50
2015,08,29,07,28,20.90
2015,08,29,07,29,17.70
2015,08,29,07,30,14.50
2015,08,29,07,31,8.10
2015,08,29,07,32,6.40
2015,08,29,07,33,11.30
2015,08,29,07,34,11.30
2015,08,29,07,35,9.60
2015,08,29,07,36,17.70
2015,08,29,07,37,17.70
2015,08,29,07,38,11.30
2015,08,29,07,39,11.30
2015,08,29,07,40,14.50
2015,08,29,07,41,16.10
2015,08,29,07,42,14.50
2015,08,29,07,43,17.70
2015,08,29,07,44,14.50
2015,08,29,07,45,20.90
2015,08,29,07,46,14.50
2015,08,29,07,47,17.70
2015,08,29,07,48,20.90
2015,08,29,07,49,17.70
2015,08,29,07,50,20.90
2015,08,29,07,51,19.30
2015,08,29,07,52,16.10
2015,08,29,07,53,19.30
2015,08,29,07,54,20.90
2015,08,29,07,55,11.30
2015,08,29,07,56,17.70
2015,08,29,07,57,19.30
2015,08,29,07,58,14.50
2015,08,29,07,59,11.30
2015,08,29,08,00,11.30
2015,08,29,08,01,11.30
2015,08,29,08,02,14.50
2015,08,29,08,03,16.10
2015,08,29,08,04,17.70
2015,08,29,08,05,8.10
2015,08,29,08,06,11.30
2015,08,29,08,07,1.60
2015,08,29,08,08,4.80
2015,08,29,08,09,8.10
2015,08,29,08,10,6.40
2015,08,29,08,11,4.80
2015,08,29,08,12,4.80
2015,08,29,08,13,6.40
2015,08,29,08,14,4.80
2015,08,29,08,15,3.20
2015,08,29,08,18,4.80
2015,08,29,08,19,4.80
2015,08,29,08,20,6.40
2015,08,29,08,21,8.10
2015,08,29,08,22,8.10
2015,08,29,08,23,8.10
2015,08,29,08,24,6.40
2015,08,29,08,36,1.60
2015,08,29,08,37,1.60
2015,08,29,08,41,3.20
2015,08,29,08,42,1.60
2015,08,29,08,46,3.20
2015,08,29,08,47,4.80
2015,08,29,08,48,8.10
2015,08,29,08,49,1.60
2015,08,29,08,50,4.80
2015,08,29,08,51,4.80
2015,08,29,08,52,6.40
2015,08,29,08,53,19.30
2015,08,29,08,54,9.60
2015,08,29,08,55,14.50
2015,08,29,08,56,11.30
2015,08,29,08,57,8.10
2015,08,29,08,58,6.40
2015,08,29,08,59,19.30
2015,08,29,09,00,17.70
2015,08,29,09,01,6.40
2015,08,29,09,02,12.90
2015,08,29,09,03,12.90
2015,08,29,09,04,8.10
2015,08,29,09,05,17.70
2015,08,29,09,06,19.30
2015,08,29,09,07,17.70
2015,08,29,09,08,17.70
2015,08,29,09,09,24.20
2015,08,29,09,10,22.50
2015,08,29,09,11,22.50
2015,08,29,09,12,24.20
2015,08,29,09,13,17.70
2015,08,29,09,14,19.30
2015,08,29,09,15,14.50
2015,08,29,09,16,19.30
2015,08,29,09,17,20.90
2015,08,29,09,18,14.50
2015,08,29,09,19,11.30
2015,08,29,09,20,9.60
2015,08,29,09,21,4.80
2015,08,29,09,22,17.70
2015,08,29,09,23,12.90
2015,08,29,09,24,9.60
2015,08,29,09,25,8.10
2015,08,29,09,26,9.60
2015,08,29,09,27,8.10
2015,08,29,09,28,9.60
2015,08,29,09,29,16.10
2015,08,29,09,30,11.30
2015,08,29,09,31,16.10
2015,08,29,09,32,16.10
2015,08,29,09,33,11.30
2015,08,29,09,34,11.30
2015,08,29,09,35,11.30
2015,08,29,09,36,16.10
2015,08,29,09,37,17.70
2015,08,29,09,38,17.70
2015,08,29,09,39,12.90
2015,08,29,09,40,16.10
2015,08,29,09,41,22.50
2015,08,29,09,42,16.10
2015,08,29,09,43,11.30
2015,08,29,09,44,20.90
2015,08,29,09,45,19.30
2015,08,29,09,46,16.10
2015,08,29,09,47,11.30
2015,08,29,09,48,20.90
2015,08,29,09,49,16.10
2015,08,29,09,50,17.70
2015,08,29,09,51,16.10
2015,08,29,09,52,22.50
2015,08,29,09,53,27.40
2015,08,29,09,54,24.20
2015,08,29,09,55,20.90
2015,08,29,09,56,19.30
2015,08,29,09,57,22.50
2015,08,29,09,58,17.70
2015,08,29,09,59,14.50
2015,08,29,10,00,17.70
2015,08,29,10,01,19.30
2015,08,29,10,02,19.30
2015,08,29,10,03,25.70
2015,08,29,10,04,17.70
2015,08,29,10,05,11.30
2015,08,29,10,06,17.70
2015,08,29,10,07,17.70
2015,08,29,10,08,19.30
2015,08,29,10,09,20.90
2015,08,29,10,10,12.90
2015,08,29,10,11,20.90
2015,08,29,10,12,27.40
2015,08,29,10,13,22.50
2015,08,29,10,14,19.30
2015,08,29,10,15,17.70
2015,08,29,10,16,19.30
2015,08,29,10,17,33.80
2015,08,29,10,18,22.50
2015,08,29,10,19,17.70
2015,08,29,10,20,22.50
2015,08,29,10,21,17.70
2015,08,29,10,22,27.40
2015,08,29,10,23,25.70
2015,08,29,10,24,14.50
2015,08,29,10,25,20.90
2015,08,29,10,26,22.50
2015,08,29,10,27,27.40
2015,08,29,10,28,19.30
2015,08,29,10,29,17.70
2015,08,29,10,30,19.30
2015,08,29,10,31,22.50
2015,08,29,10,32,19.30
2015,08,29,10,33,24.20
2015,08,29,10,34,22.50
2015,08,29,10,35,19.30
2015,08,29,10,36,16.10
2015,08,29,10,37,17.70
2015,08,29,10,38,24.20
2015,08,29,10,39,6.40
2015,08,29,10,40,17.70
2015,08,29,10,41,19.30
2015,08,29,10,42,14.50
2015,08,29,10,43,8.10
2015,08,29,10,44,16.10
2015,08,29,10,45,19.30
2015,08,29,10,46,9.60
2015,08,29,10,47,14.50
2015,08,29,10,48,9.60
2015,08,29,10,49,11.30
2015,08,29,10,50,14.50
2015,08,29,10,51,11.30
2015,08,29,10,52,14.50
2015,08,29,10,53,11.30
2015,08,29,10,54,22.50
2015,08,29,10,55,24.20
2015,08,29,10,56,19.30
2015,08,29,10,57,27.40
2015,08,29,10,58,20.90
2015,08,29,10,59,19.30
2015,08,29,11,00,22.50
2015,08,29,11,01,24.20
2015,08,29,11,02,22.50
2015,08,29,11,03,11.30
2015,08,29,11,04,11.30
2015,08,29,11,05,27.40
2015,08,29,11,06,38.60
2015,08,29,11,07,24.20
2015,08,29,11,08,22.50
2015,08,29,11,09,32.20
2015,08,29,11,10,22.50
2015,08,29,11,11,38.60
2015,08,29,11,12,37.00
2015,08,29,11,13,33.80
2015,08,29,11,14,35.40
2015,08,29,11,15,37.00
2015,08,29,11,16,33.80
2015,08,29,11,17,30.60
2015,08,29,11,18,40.20
2015,08,29,11,19,40.20
2015,08,29,11,20,38.60
2015,08,29,11,21,29.00
2015,08,29,11,22,33.80
2015,08,29,11,23,38.60
2015,08,29,11,24,33.80
2015,08,29,11,25,40.20
2015,08,29,11,26,41.80
2015,08,29,11,27,43.50
2015,08,29,11,28,38.60
2015,08,29,11,29,29.00
2015,08,29,11,30,32.20
2015,08,29,11,31,45.10
2015,08,29,11,32,33.80
2015,08,29,11,33,33.80
2015,08,29,11,34,37.00
2015,08,29,11,35,54.70
2015,08,29,11,36,35.40
2015,08,29,11,37,27.40
2015,08,29,11,38,43.50
2015,08,29,11,39,37.00
2015,08,29,11,40,37.00
2015,08,29,11,41,27.40
2015,08,29,11,42,30.60
2015,08,29,11,43,29.00
2015,08,29,11,44,20.90
2015,08,29,11,45,30.60
2015,08,29,11,46,38.60
2015,08,29,11,47,33.80
2015,08,29,11,48,33.80
2015,08,29,11,49,32.20
2015,08,29,11,50,30.60
2015,08,29,11,51,45.10
2015,08,29,11,52,41.80
2015,08,29,11,53,37.00
2015,08,29,11,54,27.40
2015,08,29,11,55,22.50
2015,08,29,11,56,30.60
2015,08,29,11,57,35.40
2015,08,29,11,58,30.60
2015,08,29,11,59,27.40
2015,08,29,12,00,27.40
2015,08,29,12,01,24.20
2015,08,29,12,02,29.00
2015,08,29,12,03,32.20
2015,08,29,12,04,32.20
2015,08,29,12,05,30.60
2015,08,29,12,06,35.40
2015,08,29,12,07,32.20
2015,08,29,12,08,33.80
2015,08,29,12,09,40.20
2015,08,29,12,10,30.60
2015,08,29,12,11,30.60
2015,08,29,12,12,27.40
2015,08,29,12,13,35.40
2015,08,29,12,14,33.80
2015,08,29,12,15,41.80
2015,08,29,12,16,48.30
2015,08,29,12,17,25.70
2015,08,29,12,18,35.40
2015,08,29,12,19,16.10
2015,08,29,12,20,22.50
2015,08,29,12,21,24.20
2015,08,29,12,22,24.20
2015,08,29,12,23,32.20
2015,08,29,12,24,24.20
2015,08,29,12,25,27.40
2015,08,29,12,26,33.80
2015,08,29,12,27,32.20
2015,08,29,12,28,27.40
2015,08,29,12,29,25.70
2015,08,29,12,30,24.20
2015,08,29,12,31,29.00
2015,08,29,12,32,17.70
2015,08,29,12,33,24.20
2015,08,29,12,34,24.20
2015,08,29,12,35,29.00
2015,08,29,12,36,19.30
2015,08,29,12,37,14.50
2015,08,29,12,38,16.10
2015,08,29,12,39,16.10
2015,08,29,12,40,16.10
2015,08,29,12,41,11.30
2015,08,29,12,42,11.30
2015,08,29,12,43,19.30
2015,08,29,12,44,20.90
2015,08,29,12,45,20.90
2015,08,29,12,46,24.20
2015,08,29,12,47,20.90
2015,08,29,12,48,27.40
2015,08,29,12,49,25.70
2015,08,29,12,50,17.70
2015,08,29,12,51,17.70
2015,08,29,12,52,20.90
2015,08,29,12,53,20.90
2015,08,29,12,54,22.50
2015,08,29,12,55,20.90
2015,08,29,12,56,25.70
2015,08,29,12,57,19.30
2015,08,29,12,58,19.30
2015,08,29,12,59,19.30
2015,08,29,13,00,14.50
2015,08,29,13,01,19.30
2015,08,29,13,02,16.10
2015,08,29,13,03,14.50
2015,08,29,13,04,17.70
2015,08,29,13,05,9.60
2015,08,29,13,06,20.90
2015,08,29,13,07,20.90
2015,08,29,13,08,37.00
2015,08,29,13,09,22.50
2015,08,29,13,10,29.00
2015,08,29,13,11,19.30
2015,08,29,13,12,35.40
2015,08,29,13,13,35.40
2015,08,29,13,14,29.00
2015,08,29,13,15,32.20
2015,08,29,13,16,33.80
2015,08,29,13,17,20.90
2015,08,29,13,18,16.10
2015,08,29,13,19,20.90
2015,08,29,13,20,25.70
2015,08,29,13,21,24.20
2015,08,29,13,22,29.00
2015,08,29,13,23,29.00
2015,08,29,13,24,27.40
2015,08,29,13,25,25.70
2015,08,29,13,26,32.20
2015,08,29,13,27,22.50
2015,08,29,13,28,25.70
2015,08,29,13,29,22.50
2015,08,29,13,30,33.80
2015,08,29,13,31,32.20
2015,08,29,13,32,32.20
2015,08,29,13,33,30.60
2015,08,29,13,34,27.40
2015,08,29,13,35,25.70
2015,08,29,13,36,25.70
2015,08,29,13,37,22.50
2015,08,29,13,38,17.70
2015,08,29,13,39,22.50
2015,08,29,13,40,24.20
2015,08,29,13,41,24.20
2015,08,29,13,42,19.30
2015,08,29,13,43,20.90
2015,08,29,13,44,32.20
2015,08,29,13,45,17.70
2015,08,29,13,46,24.20
2015,08,29,13,47,20.90
2015,08,29,13,48,19.30
2015,08,29,13,49,14.50
2015,08,29,13,50,20.90
2015,08,29,13,51,19.30
2015,08,29,13,52,22.50
2015,08,29,13,53,11.30
2015,08,29,13,54,17.70
2015,08,29,13,55,14.50
2015,08,29,13,56,24.20
2015,08,29,13,57,24.20
2015,08,29,13,58,16.10
2015,08,29,13,59,24.20
2015,08,29,14,00,30.60
2015,08,29,14,01,20.90
2015,08,29,14,02,29.00
2015,08,29,14,03,35.40
2015,08,29,14,04,33.80
2015,08,29,14,05,29.00
2015,08,29,14,06,20.90
2015,08,29,14,07,30.60
2015,08,29,14,08,27.40
2015,08,29,14,09,25.70
2015,08,29,14,10,20.90
2015,08,29,14,11,38.60
2015,08,29,14,12,43.50
2015,08,29,14,13,25.70
2015,08,29,14,14,33.80
2015,08,29,14,15,32.20
2015,08,29,14,16,29.00
2015,08,29,14,17,41.80
2015,08,29,14,18,37.00
2015,08,29,14,19,37.00
2015,08,29,14,20,29.00
2015,08,29,14,21,33.80
2015,08,29,14,22,32.20
2015,08,29,14,23,45.10
2015,08,29,14,24,46.70
2015,08,29,14,25,29.00
2015,08,29,14,26,40.20
2015,08,29,14,27,53.10
2015,08,29,14,28,41.80
2015,08,29,14,29,45.10
2015,08,29,14,30,25.70
2015,08,29,14,31,22.50
2015,08,29,14,32,25.70
2015,08,29,14,33,32.20
2015,08,29,14,34,37.00
2015,08,29,14,35,37.00
2015,08,29,14,36,35.40
2015,08,29,14,37,25.70
2015,08,29,14,38,45.10
2015,08,29,14,39,40.20
2015,08,29,14,40,48.30
2015,08,29,14,41,43.50
2015,08,29,14,42,38.60
2015,08,29,14,43,49.90
2015,08,29,14,44,41.80
2015,08,29,14,45,37.00
2015,08,29,14,46,37.00
2015,08,29,14,47,30.60
2015,08,29,14,48,33.80
2015,08,29,14,49,37.00
2015,08,29,14,50,33.80
2015,08,29,14,51,43.50
2015,08,29,14,52,35.40
2015,08,29,14,53,32.20
2015,08,29,14,54,45.10
2015,08,29,14,55,45.10
2015,08,29,14,56,46.70
2015,08,29,14,57,48.30
2015,08,29,14,58,49.90
2015,08,29,14,59,30.60
2015,08,29,15,00,38.60
2015,08,29,15,01,35.40
2015,08,29,15,02,33.80
2015,08,29,15,03,46.70
2015,08,29,15,04,32.20
2015,08,29,15,05,33.80
2015,08,29,15,06,46.70
2015,08,29,15,07,33.80
2015,08,29,15,08,43.50
2015,08,29,15,09,53.10
2015,08,29,15,10,43.50
2015,08,29,15,11,48.30
2015,08,29,15,12,43.50
2015,08,29,15,13,37.00
2015,08,29,15,14,40.20
2015,08,29,15,15,38.60
2015,08,29,15,16,48.30
2015,08,29,15,17,45.10
2015,08,29,15,18,38.60
2015,08,29,15,19,32.20
2015,08,29,15,20,32.20
2015,08,29,15,21,37.00
2015,08,29,15,22,41.80
2015,08,29,15,23,25.70
2015,08,29,15,24,38.60
2015,08,29,15,25,38.60
2015,08,29,15,26,41.80
2015,08,29,15,27,35.40
2015,08,29,15,28,33.80
2015,08,29,15,29,35.40
2015,08,29,15,30,37.00
2015,08,29,15,31,38.60
2015,08,29,15,32,41.80
2015,08,29,15,33,35.40
2015,08,29,15,34,30.60
2015,08,29,15,35,27.40
2015,08,29,15,36,27.40
2015,08,29,15,37,32.20
2015,08,29,15,38,37.00
2015,08,29,15,39,24.20
2015,08,29,15,40,33.80
2015,08,29,15,41,35.40
2015,08,29,15,42,32.20
2015,08,29,15,43,40.20
2015,08,29,15,44,32.20
2015,08,29,15,45,25.70
2015,08,29,15,46,35.40
2015,08,29,15,47,32.20
2015,08,29,15,48,41.80
2015,08,29,15,49,27.40
2015,08,29,15,50,29.00
2015,08,29,15,51,29.00
2015,08,29,15,52,35.40
2015,08,29,15,53,30.60
2015,08,29,15,54,37.00
2015,08,29,15,55,24.20
2015,08,29,15,56,25.70
2015,08,29,15,57,25.70
2015,08,29,15,58,29.00
2015,08,29,15,59,19.30
2015,08,29,16,00,20.90
2015,08,29,16,01,20.90
2015,08,29,16,02,22.50
2015,08,29,16,03,20.90
2015,08,29,16,04,11.30
2015,08,29,16,05,24.20
2015,08,29,16,06,19.30
2015,08,29,16,07,16.10
2015,08,29,16,08,17.70
2015,08,29,16,09,14.50
2015,08,29,16,10,14.50
2015,08,29,16,11,8.10
2015,08,29,16,12,3.20
2015,08,29,16,13,8.10
2015,08,29,16,14,8.10
2015,08,29,16,15,3.20
2015,08,29,16,16,3.20
2015,08,29,16,17,6.40
2015,08,29,16,18,6.40
2015,08,29,16,19,4.80
2015,08,29,16,20,8.10
2015,08,29,16,21,9.60
2015,08,29,16,22,9.60
2015,08,29,16,23,8.10
2015,08,29,16,24,8.10
2015,08,29,16,25,9.60
2015,08,29,16,26,8.10
2015,08,29,16,27,4.80
2015,08,29,16,28,9.60
2015,08,29,16,29,4.80
2015,08,29,16,30,4.80
2015,08,29,16,31,8.10
2015,08,29,16,32,6.40
2015,08,29,16,33,1.60
2015,08,29,16,34,1.60
2015,08,29,16,35,4.80
2015,08,29,16,36,4.80
2015,08,29,16,37,6.40
2015,08,29,16,38,6.40
2015,08,29,16,39,8.10
2015,08,29,16,40,6.40
2015,08,29,16,41,6.40
2015,08,29,16,42,4.80
2015,08,29,16,43,6.40
2015,08,29,16,44,6.40
2015,08,29,16,45,3.20
2015,08,29,16,46,4.80
2015,08,29,16,47,4.80
2015,08,29,16,48,16.10
2015,08,29,16,49,14.50
2015,08,29,16,50,8.10
2015,08,29,16,51,14.50
2015,08,29,16,52,11.30
2015,08,29,16,53,9.60
2015,08,29,16,54,14.50
2015,08,29,16,55,11.30
2015,08,29,16,56,9.60
2015,08,29,16,57,14.50
2015,08,29,16,58,17.70
2015,08,29,16,59,16.10
2015,08,29,17,00,6.40
2015,08,29,17,01,12.90
2015,08,29,17,02,9.60
2015,08,29,17,03,9.60
2015,08,29,17,04,8.10
2015,08,29,17,05,6.40
2015,08,29,17,06,4.80
2015,08,29,17,07,4.80
2015,08,29,17,08,8.10
2015,08,29,17,09,6.40
2015,08,29,17,10,6.40
2015,08,29,17,11,6.40
2015,08,29,17,12,6.40
2015,08,29,17,13,6.40
2015,08,29,17,14,4.80
2015,08,29,17,15,4.80
2015,08,29,17,16,6.40
2015,08,29,17,17,6.40
2015,08,29,17,18,6.40
2015,08,29,17,19,4.80
2015,08,29,17,20,8.10
2015,08,29,17,21,6.40
2015,08,29,17,22,6.40
2015,08,29,17,23,8.10
2015,08,29,17,24,6.40
2015,08,29,17,25,6.40
2015,08,29,17,26,4.80
2015,08,29,17,27,4.80
2015,08,29,17,28,8.10
2015,08,29,17,29,6.40
2015,08,29,17,30,6.40
2015,08,29,17,31,3.20
2015,08,29,17,32,4.80
2015,08,29,17,33,4.80
2015,08,29,17,34,11.30
2015,08,29,17,35,12.90
2015,08,29,17,36,9.60
2015,08,29,17,37,8.10
2015,08,29,17,38,6.40
2015,08,29,17,39,8.10
2015,08,29,17,40,9.60
2015,08,29,17,41,8.10
2015,08,29,17,42,8.10
2015,08,29,17,43,8.10
2015,08,29,17,44,8.10
2015,08,29,17,45,8.10
2015,08,29,17,46,8.10
2015,08,29,17,47,8.10
2015,08,29,17,48,4.80
2015,08,29,17,49,6.40
2015,08,29,17,50,4.80
2015,08,29,17,51,1.60
2015,08,29,17,52,3.20
2015,08,29,17,53,3.20
2015,08,29,17,54,4.80
2015,08,29,17,55,4.80
2015,08,29,17,57,1.60
2015,08,29,17,58,1.60
2015,08,29,17,59,1.60
2015,08,29,18,00,4.80
2015,08,29,18,01,4.80
2015,08,29,18,02,4.80
2015,08,29,18,03,6.40
2015,08,29,18,04,8.10
2015,08,29,18,05,9.60
2015,08,29,18,06,8.10
2015,08,29,18,07,11.30
2015,08,29,18,08,11.30
2015,08,29,18,09,14.50
2015,08,29,18,10,17.70
2015,08,29,18,11,12.90
2015,08,29,18,12,8.10
2015,08,29,18,13,11.30
2015,08,29,18,14,16.10
2015,08,29,18,15,16.10
2015,08,29,18,16,9.60
2015,08,29,18,17,14.50
2015,08,29,18,18,17.70
2015,08,29,18,19,19.30
2015,08,29,18,20,17.70
2015,08,29,18,21,11.30
2015,08,29,18,22,14.50
2015,08,29,18,23,11.30
2015,08,29,18,24,4.80
2015,08,29,18,25,4.80
2015,08,29,18,26,8.10
2015,08,29,18,27,8.10
2015,08,29,18,28,4.80
2015,08,29,18,29,3.20
2015,08,29,18,30,3.20
2015,08,29,18,31,3.20
2015,08,29,18,32,6.40
2015,08,29,18,33,9.60
2015,08,29,18,34,8.10
2015,08,29,18,35,9.60
2015,08,29,18,36,14.50
2015,08,29,18,37,14.50
2015,08,29,18,38,9.60
2015,08,29,18,39,8.10
2015,08,29,18,40,14.50
2015,08,29,18,41,14.50
2015,08,29,18,42,11.30
2015,08,29,18,43,11.30
2015,08,29,18,44,14.50
2015,08,29,18,45,19.30
2015,08,29,18,46,12.90
2015,08,29,18,47,12.90
2015,08,29,18,48,9.60
2015,08,29,18,49,9.60
2015,08,29,18,50,11.30
2015,08,29,18,51,8.10
2015,08,29,18,52,4.80
2015,08,29,18,53,6.40
2015,08,29,18,54,4.80
2015,08,29,18,55,6.40
2015,08,29,18,56,9.60
2015,08,29,18,57,9.60
2015,08,29,18,58,11.30
2015,08,29,18,59,16.10
2015,08,29,19,00,9.60
2015,08,29,19,01,8.10
2015,08,29,19,02,9.60
2015,08,29,19,03,9.60
2015,08,29,19,04,8.10
2015,08,29,19,05,14.50
2015,08,29,19,06,11.30
2015,08,29,19,07,9.60
2015,08,29,19,08,14.50
2015,08,29,19,09,11.30
2015,08,29,19,10,9.60
2015,08,29,19,11,14.50
2015,08,29,19,12,14.50
2015,08,29,19,13,9.60
2015,08,29,19,14,11.30
2015,08,29,19,15,8.10